Location: Huesca
(42.1318°N, 0.4078°W)
Time: 19:51:48
(UTC+02:00)

DIWATA 2B (PO-101) - Pass Details

Date: 27 April 2024
Orbit: 575 x 589 km, 98.1° (Epoch: 20 May)

Event Time Altitude Azimuth Distance (km) Brightness Sun altitude
Rises 04:00:19 0° 115° (ESE) 2,816 ? -27.4°
Reaches altitude 10° 04:03:48 10° 83° (E) 1,919 ? -27.0°
Maximum altitude 04:05:18 12° 62° (ENE) 1,804 ? -26.9°
Drops below altitude 10° 04:06:49 10° 40° (NE) 1,923 ? -26.7°
Sets 04:10:18 0° 9° (N) 2,827 ? -26.3°
